Temperature
13 11 10 11 12 13 13 14 13 12 12 12 12 12 13 13 12 12 12 12 12 12 11 11 11 11 10 10 11 11 11 11 10 10 10 10 10 10 9 9 9 9 9 9
11 10 11 12 13 13 13 13 12 12 12 12 12 12 13 13 13 13 13 13 12 12 11 11 10 10 10 10 10 10 10 10 10 10 10 10 9 9 9 9 9 9 9 9
10 10 11 12 12 13 12 12 12 11 11 12 12 12 13 13 13 13 12 12 12 12 11 11 10 10 10 10 10 10 10 10 10 10 10 9 9 9 9 9 9 8 8 8
10 11 12 11 11 12 11 11 11 11 11 11 12 10 13 13 12 12 12 12 12 12 11 11 10 10 10 10 10 10 10 10 10 9 9 9 9 8 8 8 8 8 8 8
9 10 10 10 10 10 10 11 11 11 11 10 12 11 11 13 13 12 12 12 11 11 11 10 10 10 9 9 10 10 9 9 9 9 9 9 8 8 8 8 8 8 7 7
10 10 10 10 10 10 10 10 11 10 10 10 12 11 11 12 13 12 12 12 11 11 10 10 10 10 9 9 9 9 9 9 9 9 8 8 8 8 8 7 7 7 7 7
10 10 10 10 10 10 10 10 10 10 9 10 11 11 11 13 13 13 12 12 11 11 10 10 9 9 9 9 9 9 9 9 9 8 8 8 8 7 7 7 7 7 7 6
9 9 10 10 10 10 11 10 9 10 10 11 10 10 11 12 12 12 12 11 11 10 10 10 9 9 9 9 9 9 9 9 8 8 8 8 7 7 7 7 7 6 6 6
10 9 9 10 10 10 10 10 10 9 10 10 11 12 12 12 11 12 12 11 11 10 10 10 9 9 9 9 9 9 9 8 8 8 7 7 7 7 6 6 6 6 6 6
10 9 10 9 9 9 9 10 9 9 9 10 12 13 11 11 11 11 11 11 11 10 10 10 9 9 9 9 9 8 8 8 8 8 7 7 7 6 6 6 6 6 5 5
10 9 9 9 9 10 9 9 9 9 9 9 10 11 12 11 11 11 11 11 11 10 10 10 9 9 9 9 8 8 8 8 8 7 7 7 6 6 6 6 6 5 5 5
10 9 8 9 9 9 10 10 10 9 9 9 8 9 11 10 11 11 11 11 10 10 10 9 9 9 9 8 8 8 8 7 7 7 7 7 6 6 6 6 5 5 5 5
9 9 8 9 8 8 9 9 10 9 8 8 8 9 10 10 11 11 11 10 10 9 9 9 8 8 8 8 8 8 7 7 7 7 6 6 6 6 6 5 5 5 5 4
9 8 8 8 9 8 8 9 9 8 6 7 8 10 10 10 10 10 10 10 10 9 9 8 8 8 8 7 7 7 7 7 7 6 6 6 6 5 5 5 5 4 4 4
8 7 8 8 9 9 8 9 9 8 7 7 9 10 10 10 10 10 10 10 9 9 8 8 8 7 7 7 7 7 7 6 6 6 6 6 5 5 5 5 4 4 4 4
8 7 7 7 8 8 8 8 8 8 8 8 8 9 10 10 10 10 10 9 9 8 8 8 7 7 7 7 6 6 6 6 6 5 5 5 5 5 5 4 4 4 4 3
8 7 6 6 8 7 6 8 8 8 8 8 8 9 10 9 9 9 9 9 8 8 8 7 7 6 6 6 6 6 6 6 5 5 5 5 5 4 4 4 4 3 3 3
7 7 6 5 6 6 9 10 10 9 9 9 9 9 9 9 9 9 9 8 8 7 7 7 6 6 6 6 6 5 5 5 5 5 4 4 4 4 4 3 3 3 3 2
6 6 6 5 6 7 9 9 9 8 8 9 9 9 9 9 8 8 8 8 7 7 6 6 6 5 5 5 5 5 5 5 4 4 4 4 4 4 3 3 3 3 2 2
5 5 5 5 6 7 9 8 8 8 7 9 9 8 8 7 5 6 7 7 6 6 6 5 5 5 5 5 5 4 4 4 4 4 4 4 3 3 3 3 3 2 2 2
3 4 4 4 5 7 9 8 7 7 7 8 8 8 7 7 6 7 6 6 6 5 5 5 5 5 5 4 4 4 4 4 4 3 3 3 3 3 3 2 2 2 1 1
4 4 4 5 5 6 8 7 7 7 8 8 7 7 7 6 6 6 5 5 5 5 5 4 4 4 4 4 4 4 4 4 3 3 3 3 3 2 2 2 2 1 1 1
6 6 6 6 7 8 8 8 8 8 7 7 6 6 6 5 5 5 5 4 4 4 4 4 4 4 4 4 3 3 3 3 3 3 3 2 2 2 2 1 1 1 0 0
7 8 6 6 7 9 9 8 8 7 7 6 6 5 5 5 4 4 4 4 4 4 4 4 4 4 4 3 3 3 3 3 2 2 2 2 2 2 1 1 1 0 0 0
7 6 5 5 6 8 8 8 7 6 6 5 5 5 4 4 4 4 4 4 3 3 3 3 3 3 3 3 3 3 3 2 2 2 2 2 1 1 1 1 0 0 -0 -0
5 5 4 5 6 6 6 6 6 5 5 5 4 4 4 3 3 3 3 3 3 3 3 3 3 3 3 3 3 3 2 2 1 1 1 1 1 1 1 0 0 -0 -1 -1
Wind_Speed
1 3 3 2 2 2 1 3 4 3 2 0 3 5 5 6 7 7 6 6 6 6 6 7 7 6 5 4 3 3 3 2 2 2 2 2 2 2 3 4 7 8 9 9
3 5 4 2 2 2 3 4 3 3 2 1 3 6 7 7 7 6 6 6 5 5 6 6 7 6 4 4 3 3 3 2 2 2 1 0 0 0 1 2 4 6 7 8
6 3 3 2 4 4 5 3 3 2 1 3 3 5 5 4 5 5 4 4 4 5 6 7 7 6 5 4 3 3 2 2 1 1 0 0 0 1 1 1 2 3 5 6
6 3 3 5 6 5 3 4 3 1 1 1 1 3 3 6 7 7 6 5 4 3 4 5 6 6 5 5 4 3 3 2 1 1 0 0 1 1 1 1 1 1 3 4
4 4 4 5 4 5 3 2 2 2 2 2 3 3 5 4 6 7 6 5 4 4 4 4 5 5 5 5 5 4 3 3 2 1 1 1 2 1 1 1 1 1 1 2
4 3 4 3 2 2 0 2 3 2 1 2 3 3 3 2 3 5 6 6 4 4 4 4 4 4 3 4 4 4 4 4 3 3 3 3 3 2 2 2 2 2 1 1
3 3 2 2 1 1 2 1 1 1 1 3 2 2 5 2 5 5 6 6 4 4 4 3 4 4 4 4 4 5 5 4 4 4 4 3 3 3 2 2 2 2 2 1
1 1 2 2 3 3 2 3 1 1 2 1 1 4 3 5 6 6 5 5 4 4 3 3 3 4 4 5 5 5 5 5 5 5 4 4 3 3 3 3 2 2 2 2
2 1 2 2 3 4 3 1 2 2 3 3 4 4 3 6 6 5 5 4 3 3 3 2 2 3 4 5 5 5 6 5 5 5 5 4 4 4 4 3 3 2 2 2
4 1 2 2 2 1 3 4 1 1 1 3 4 3 3 4 4 5 4 3 3 3 1 1 2 2 3 3 4 4 5 5 5 5 5 5 5 5 4 4 4 3 3 2
4 0 1 2 3 2 3 2 2 2 1 1 3 2 2 5 6 5 4 3 1 0 1 1 2 2 3 3 3 4 4 5 4 5 5 5 5 5 5 4 5 4 4 3
3 2 2 2 3 3 2 3 2 1 3 3 2 4 3 7 6 4 3 1 1 2 1 2 2 2 2 2 3 4 4 4 5 5 5 5 5 5 5 5 5 5 5 4
3 2 2 1 1 1 3 4 4 2 2 3 3 4 3 5 4 2 1 1 2 2 2 2 2 2 2 3 3 3 4 4 4 4 5 5 5 6 6 6 5 5 5 4
3 3 4 3 2 1 4 5 6 5 4 5 7 7 4 3 1 2 2 2 2 2 2 2 2 3 3 3 3 4 4 4 4 4 5 6 6 6 6 6 5 5 5 5
2 3 5 8 9 7 8 9 9 11 10 7 7 6 6 4 4 3 2 3 3 4 3 3 3 3 4 4 4 4 4 4 4 5 6 7 6 6 5 5 5 5 5 6
2 4 5 6 8 8 10 12 12 12 13 14 13 13 7 2 1 2 3 4 4 4 3 3 4 5 5 5 5 4 4 4 4 5 6 6 5 5 6 6 5 5 6 5
3 2 2 4 4 6 9 9 11 8 8 8 11 8 4 3 3 4 4 5 5 4 4 4 5 5 6 6 5 5 4 3 4 5 5 5 5 6 6 6 6 6 6 6
3 2 2 4 5 6 5 1 1 5 7 8 7 5 4 3 4 5 5 3 3 4 5 6 5 6 6 5 5 5 4 4 5 5 6 6 6 6 6 6 6 6 5 6
3 3 3 3 5 8 4 2 2 2 4 4 4 4 2 4 5 4 2 4 4 5 5 6 6 6 6 6 5 4 4 5 5 6 6 6 6 6 6 7 7 6 5 6
2 3 3 4 4 6 2 4 3 2 3 1 1 1 1 3 4 4 3 5 6 5 5 5 5 6 6 6 4 4 5 6 6 6 6 6 5 6 7 7 7 5 5 6
4 5 6 7 6 8 1 6 4 2 3 1 1 1 2 3 5 6 7 7 6 6 7 6 6 6 6 5 4 5 6 7 7 6 6 6 6 6 7 6 5 5 5 5
8 7 7 6 7 8 5 6 4 3 0 1 2 3 4 5 6 6 7 7 7 6 6 6 5 6 6 5 4 6 8 7 5 5 6 6 6 6 5 6 5 5 5 5
8 8 5 8 8 2 5 4 2 1 2 2 3 4 5 6 7 7 7 7 7 6 6 5 6 6 6 5 5 7 8 6 5 5 6 6 6 6 5 6 6 5 5 5
5 3 3 6 7 5 4 4 3 2 3 4 4 5 5 7 8 8 7 7 6 6 6 5 6 7 7 6 6 7 7 5 5 7 7 6 6 6 5 5 5 5 6 6
5 4 4 8 8 7 6 3 2 3 4 5 5 5 6 7 8 8 7 7 6 6 5 5 6 7 8 8 7 6 6 5 6 7 6 6 6 6 5 5 6 6 6 7
7 7 7 9 5 4 4 3 4 5 5 5 5 6 6 6 7 8 7 6 6 6 6 6 7 7 8 8 8 7 6 6 6 7 7 6 5 5 5 4 4 8 9 11
Wind_Direction
43 66 62 57 14 346 171 123 102 85 89 249 233 248 234 196 201 207 206 209 198 183 160 146 136 133 133 129 123 108 91 66 50 37 23 34 31 27 27 28 22 16 12 8
70 47 9 3 343 20 80 90 82 80 77 284 275 267 247 212 204 202 202 209 202 178 158 151 140 141 146 148 145 125 111 91 69 67 32 52 31 4 41 27 18 15 14 10
77 47 333 28 38 48 53 51 71 62 315 237 264 283 211 181 178 179 189 202 206 188 171 160 154 155 158 160 156 142 132 122 115 109 76 358 345 311 9 360 355 11 15 13
66 27 17 54 30 6 70 44 53 12 318 249 197 295 253 175 174 184 187 192 199 181 160 158 159 162 170 171 156 151 155 160 164 156 164 243 259 273 281 296 311 348 19 16
65 29 24 50 20 7 70 6 333 309 304 314 228 227 267 171 181 181 169 167 169 159 153 152 152 161 169 163 159 167 175 187 187 186 199 238 265 273 303 323 321 338 354 14
98 64 26 35 27 20 268 257 232 247 293 280 222 201 270 199 163 143 140 142 144 140 142 144 147 150 162 160 165 176 188 205 199 200 210 219 239 258 284 300 313 319 317 337
89 95 72 334 319 194 272 316 12 352 259 244 126 190 251 117 92 108 121 119 122 131 141 154 163 172 182 186 192 192 200 217 210 206 215 220 225 229 244 260 269 285 297 308
88 82 91 16 359 342 323 347 37 281 294 314 195 227 239 108 99 94 104 123 132 138 142 158 177 188 195 203 204 201 210 221 216 211 215 218 221 218 227 230 236 250 258 268
32 100 104 59 350 334 330 26 3 325 302 282 247 207 137 115 117 128 139 138 139 124 129 164 193 199 206 211 210 208 214 219 217 213 211 215 218 216 220 224 225 232 239 251
353 82 145 137 223 252 319 336 327 210 319 289 270 220 177 142 137 136 128 107 84 77 90 216 223 213 215 217 214 212 216 221 220 214 212 216 214 216 219 218 222 227 231 238
338 24 180 196 215 198 180 229 249 278 280 266 300 308 79 116 111 109 101 86 61 352 289 263 244 230 222 216 209 218 223 223 223 220 216 216 216 216 216 219 222 223 228 230
7 330 250 199 93 22 302 258 230 229 262 239 262 276 79 102 108 98 78 44 358 345 317 277 256 244 240 236 230 227 225 225 224 221 219 219 220 216 221 226 224 221 225 223
349 303 301 219 148 190 259 252 262 300 336 258 238 253 145 143 137 128 104 22 2 346 336 321 314 292 272 259 249 241 231 230 228 222 223 225 226 222 225 226 221 219 222 223
331 280 238 253 316 250 243 238 220 208 208 240 232 245 223 227 310 349 360 0 335 322 312 314 309 305 303 290 266 251 242 230 225 224 228 231 232 230 229 224 219 217 219 219
277 272 276 283 286 274 260 253 231 221 223 235 255 270 282 317 337 342 346 338 326 313 310 314 308 301 297 293 284 268 254 237 224 226 233 236 234 232 229 223 221 220 220 221
251 277 303 285 258 256 263 252 243 241 238 247 267 280 287 312 329 328 336 323 307 298 303 317 318 309 301 293 286 279 267 250 230 232 240 241 235 233 228 224 221 220 222 221
222 258 299 282 310 311 270 243 221 217 220 228 245 255 297 323 327 319 303 287 286 299 321 317 306 297 295 294 290 281 271 271 253 244 245 241 236 235 232 225 222 222 222 220
247 236 249 285 314 257 240 89 155 215 234 227 243 277 321 327 315 297 291 292 317 330 323 311 300 295 293 293 292 282 275 267 260 253 249 243 235 235 233 227 227 226 222 221
256 232 247 263 278 275 246 177 149 199 266 236 236 268 312 349 326 300 3 18 338 315 304 298 296 294 292 289 285 283 279 270 264 257 252 246 238 235 231 230 230 228 223 226
274 255 249 240 252 258 243 124 93 80 256 81 112 288 323 346 308 281 341 339 319 308 298 294 293 295 290 288 291 287 280 272 264 260 255 248 240 235 232 232 233 228 222 225
172 201 220 234 248 265 216 139 129 182 221 102 40 318 303 274 260 296 321 315 308 302 297 295 292 289 283 284 286 278 274 267 262 261 257 249 242 237 235 232 228 225 221 221
184 188 201 202 223 250 162 144 189 219 108 350 327 317 303 290 291 299 301 298 300 299 297 297 293 288 287 282 276 275 271 269 267 262 258 252 244 240 237 230 228 218 211 218
202 204 202 205 220 221 168 193 202 168 268 289 293 299 298 294 292 294 295 294 293 291 292 294 289 290 288 277 267 272 275 275 274 267 261 256 249 238 231 226 226 223 213 218
224 207 246 267 264 260 241 250 264 276 278 292 298 303 301 292 294 294 293 291 291 291 291 292 292 289 289 283 272 267 275 274 270 267 264 257 249 244 234 226 220 219 218 219
233 187 233 260 273 280 257 254 302 327 319 310 307 300 292 290 292 291 291 288 287 289 287 286 282 282 285 287 281 276 274 268 267 267 265 260 249 243 238 231 225 224 223 218
215 214 224 247 256 265 288 330 339 313 299 299 302 298 291 284 286 291 290 286 286 287 288 286 281 280 284 287 285 279 272 262 262 267 263 257 250 243 236 237 251 238 232 237
Height
1499 1503 1506 1504 1503 1502 1501 1502 1507 1510 1510 1511 1511 1510 1508 1508 1509 1510 1512 1513 1515 1516 1517 1517 1517 1518 1519 1520 1520 1521 1521 1521 1522 1522 1522 1521 1521 1520 1520 1519 1518 1517 1516 1514
1504 1509 1508 1504 1503 1501 1502 1506 1510 1511 1510 1511 1510 1509 1504 1504 1505 1507 1509 1511 1512 1513 1514 1515 1516 1516 1518 1519 1519 1519 1520 1521 1521 1521 1521 1520 1520 1519 1518 1517 1516 1515 1514 1513
1508 1512 1508 1505 1505 1505 1508 1511 1512 1514 1513 1510 1512 1509 1501 1500 1502 1505 1506 1508 1510 1512 1513 1514 1514 1515 1516 1517 1518 1518 1519 1519 1519 1519 1519 1519 1518 1517 1517 1516 1515 1513 1512 1511
1511 1511 1509 1509 1511 1509 1514 1514 1514 1514 1516 1516 1512 1521 1503 1499 1502 1503 1505 1507 1509 1510 1512 1513 1513 1514 1515 1516 1516 1517 1518 1518 1518 1518 1517 1517 1516 1515 1514 1513 1512 1511 1510 1509
1515 1514 1513 1514 1516 1513 1516 1515 1515 1514 1515 1518 1513 1519 1510 1499 1501 1502 1503 1506 1507 1509 1510 1511 1512 1513 1514 1514 1514 1515 1515 1516 1516 1515 1515 1514 1514 1513 1512 1511 1510 1510 1508 1507
1516 1517 1517 1518 1517 1516 1516 1516 1515 1516 1518 1524 1511 1515 1512 1501 1498 1500 1502 1505 1506 1508 1509 1510 1511 1511 1512 1512 1513 1513 1513 1513 1513 1513 1512 1512 1511 1510 1510 1509 1508 1507 1506 1505
1517 1518 1519 1518 1518 1517 1517 1519 1523 1524 1524 1520 1510 1514 1511 1498 1497 1499 1502 1504 1506 1507 1508 1509 1509 1509 1510 1510 1511 1511 1511 1511 1511 1510 1510 1509 1508 1508 1507 1506 1505 1504 1503 1502
1521 1524 1520 1520 1520 1519 1517 1519 1527 1528 1523 1517 1514 1516 1505 1497 1497 1499 1501 1504 1506 1506 1507 1507 1508 1508 1508 1508 1509 1508 1508 1508 1508 1507 1506 1506 1505 1504 1504 1503 1502 1501 1500 1499
1519 1524 1522 1521 1521 1521 1519 1521 1521 1525 1519 1523 1513 1502 1499 1497 1499 1500 1502 1503 1505 1505 1506 1506 1507 1506 1506 1506 1506 1506 1505 1504 1504 1504 1503 1502 1502 1501 1500 1499 1499 1498 1496 1495
1518 1524 1521 1522 1522 1522 1522 1521 1524 1526 1528 1524 1508 1500 1504 1501 1500 1501 1502 1503 1504 1505 1505 1505 1505 1504 1504 1504 1503 1503 1502 1501 1500 1500 1499 1498 1498 1497 1497 1496 1495 1494 1493 1492
1518 1523 1524 1522 1521 1520 1523 1523 1522 1522 1523 1527 1521 1512 1499 1499 1499 1501 1502 1503 1504 1504 1504 1503 1503 1502 1502 1501 1500 1499 1498 1498 1497 1496 1495 1495 1494 1493 1492 1492 1491 1490 1490 1489
1520 1522 1524 1519 1518 1519 1519 1517 1519 1526 1524 1521 1525 1519 1499 1498 1499 1501 1502 1502 1502 1502 1502 1502 1501 1500 1499 1498 1497 1496 1495 1494 1493 1492 1492 1491 1490 1489 1488 1487 1487 1486 1486 1485
1522 1523 1526 1522 1525 1523 1521 1518 1517 1519 1523 1525 1525 1515 1501 1499 1499 1499 1500 1500 1500 1500 1500 1499 1499 1498 1496 1495 1494 1493 1492 1490 1489 1488 1487 1486 1485 1484 1484 1483 1483 1482 1482 1481
1523 1523 1526 1525 1520 1519 1519 1517 1517 1521 1529 1524 1515 1506 1501 1499 1498 1498 1499 1498 1498 1498 1498 1497 1496 1495 1494 1492 1491 1489 1488 1487 1485 1484 1483 1482 1481 1480 1479 1479 1478 1478 1477 1476
1523 1525 1521 1519 1515 1515 1515 1514 1514 1516 1516 1516 1505 1501 1498 1498 1497 1497 1497 1497 1497 1496 1496 1495 1494 1492 1491 1489 1488 1486 1484 1483 1481 1480 1478 1477 1476 1475 1474 1474 1473 1473 1472 1472
1522 1523 1521 1520 1512 1511 1511 1508 1508 1508 1507 1506 1503 1501 1496 1496 1495 1495 1495 1495 1495 1494 1493 1492 1491 1489 1488 1486 1484 1482 1480 1478 1477 1475 1474 1472 1471 1470 1469 1469 1468 1468 1467 1467
1521 1522 1524 1522 1511 1511 1510 1497 1499 1501 1498 1499 1501 1497 1494 1494 1494 1494 1493 1493 1492 1491 1490 1489 1487 1486 1484 1482 1480 1478 1476 1474 1472 1470 1469 1467 1466 1465 1465 1464 1463 1462 1462 1461
1521 1522 1525 1523 1518 1518 1496 1489 1489 1492 1492 1492 1492 1492 1492 1493 1492 1492 1491 1490 1489 1489 1487 1485 1483 1481 1479 1477 1475 1473 1471 1469 1467 1466 1464 1463 1461 1460 1459 1459 1458 1457 1456 1456
1520 1522 1523 1523 1519 1506 1492 1490 1490 1492 1492 1488 1489 1490 1491 1491 1490 1489 1489 1488 1487 1486 1484 1482 1480 1477 1475 1473 1470 1468 1466 1465 1463 1461 1459 1458 1456 1455 1454 1453 1452 1452 1451 1450
1521 1521 1524 1520 1518 1508 1491 1490 1489 1492 1493 1488 1488 1489 1489 1490 1492 1489 1486 1485 1483 1481 1479 1477 1475 1473 1470 1468 1466 1464 1461 1460 1458 1456 1454 1453 1451 1450 1448 1447 1447 1446 1445 1445
1522 1523 1523 1520 1515 1500 1489 1489 1490 1496 1492 1488 1487 1487 1488 1488 1488 1486 1483 1481 1479 1477 1475 1473 1470 1468 1466 1464 1462 1459 1457 1455 1453 1451 1449 1448 1446 1444 1443 1442 1441 1440 1440 1439
1511 1515 1515 1513 1513 1502 1487 1488 1490 1488 1486 1486 1486 1486 1485 1484 1483 1481 1479 1476 1474 1472 1470 1468 1466 1464 1462 1460 1457 1454 1452 1450 1448 1446 1444 1442 1440 1439 1438 1436 1435 1434 1434 1433
1498 1498 1497 1498 1494 1485 1484 1483 1484 1484 1484 1483 1483 1482 1481 1479 1478 1476 1474 1472 1470 1468 1466 1464 1462 1459 1457 1455 1453 1450 1448 1445 1443 1440 1438 1436 1435 1433 1432 1431 1430 1429 1428 1427
1490 1489 1490 1489 1482 1481 1481 1481 1481 1481 1481 1480 1479 1478 1477 1475 1473 1472 1470 1468 1466 1464 1462 1460 1457 1455 1452 1451 1448 1446 1443 1441 1438 1435 1433 1431 1429 1427 1426 1425 1424 1423 1422 1421
1486 1487 1488 1485 1481 1479 1478 1478 1478 1478 1477 1476 1475 1474 1473 1471 1469 1467 1465 1463 1461 1459 1457 1455 1453 1450 1448 1446 1443 1441 1438 1435 1432 1430 1427 1425 1423 1422 1420 1419 1418 1417 1417 1417
1481 1482 1484 1480 1477 1476 1475 1475 1474 1474 1473 1472 1471 1469 1468 1467 1465 1463 1461 1459 1457 1455 1453 1451 1448 1446 1443 1440 1438 1435 1433 1430 1427 1424 1422 1420 1418 1416 1414 1413 1412 1411 1411 1411